[keps] orb12068.amsat
Ray Hoad
ray.hoad at mypbmail.com
Thu Mar 8 21:06:59 PST 2012
SB KEPS @ AMSAT $ORB12068.O
Orbital Elements 12068.OSCAR
HR AMSAT ORBITAL ELEMENTS FOR OSCAR SATELLITES
FROM WA5QGD FORT WORTH,TX March 8, 2012
Send SUBSCRIBE KEPS/UNSUBSCRIBE KEPS to majordomo at amsat.org only
BID: ORB12068.O
TO ALL RADIO AMATEURS BT
Satellite: AO-07
Catalog number: 07530
Epoch time: 12067.55286541
Element set: 0326
Inclination: 101.4013 deg
RA of node: 068.6993 deg
Eccentricity: 0.0012120
Arg of perigee: 121.5543 deg
Mean anomaly: 238.6716 deg
Mean motion: 12.53587938 rev/day
Decay rate: -2.7e-07 rev/day^2
Epoch rev: 70731
Checksum: 286
Satellite: FO-29
Catalog number: 24278
Epoch time: 12067.87282827
Element set: 790
Inclination: 098.5751 deg
RA of node: 181.8180 deg
Eccentricity: 0.0349771
Arg of perigee: 291.7006 deg
Mean anomaly: 064.7237 deg
Mean motion: 13.52977492 rev/day
Decay rate: -4.2e-07 rev/day^2
Epoch rev: 76825
Checksum: 352
Satellite: SO-33
Catalog number: 25509
Epoch time: 12068.65143873
Element set: 181
Inclination: 031.4318 deg
RA of node: 182.5824 deg
Eccentricity: 0.0352507
Arg of perigee: 043.6490 deg
Mean anomaly: 319.1453 deg
Mean motion: 14.28677676 rev/day
Decay rate: 3.47e-06 rev/day^2
Epoch rev: 69826
Checksum: 324
Satellite: RS-22
Catalog number: 27939
Epoch time: 12068.79925379
Element set: 153
Inclination: 097.8194 deg
RA of node: 274.7209 deg
Eccentricity: 0.0012806
Arg of perigee: 219.8482 deg
Mean anomaly: 140.1787 deg
Mean motion: 14.63922118 rev/day
Decay rate: 6.67e-06 rev/day^2
Epoch rev: 45119
Checksum: 345
Satellite: VO-52
Catalog number: 28650
Epoch time: 12067.56635556
Element set: 0044
Inclination: 097.6101 deg
RA of node: 103.4515 deg
Eccentricity: 0.0026953
Arg of perigee: 017.5422 deg
Mean anomaly: 342.6728 deg
Mean motion: 14.82716923 rev/day
Decay rate: 1.046e-05 rev/day^2
Epoch rev: 36991
Checksum: 305
Satellite: HO-68
Catalog number: 36122
Epoch time: 12068.80960932
Element set: 266
Inclination: 100.3750 deg
RA of node: 130.1348 deg
Eccentricity: 0.0007179
Arg of perigee: 341.0631 deg
Mean anomaly: 019.0216 deg
Mean motion: 13.16293596 rev/day
Decay rate: -4.4e-07 rev/day^2
Epoch rev: 10718
Checksum: 275
/EX
SB KEPS @ AMSAT $ORB12068.D
Orbital Elements 12068.MICROS
HR AMSAT ORBITAL ELEMENTS FOR THE MICROSATS
FROM WA5QGD FORT WORTH,TX March 8, 2012
Send SUBSCRIBE KEPS/UNSUBSCRIBE KEPS to majordomo at amsat.org only
BID: ORB12068.D
TO ALL RADIO AMATEURS BT
Satellite: UO-11
Catalog number: 14781
Epoch time: 12068.88424508
Element set: 808
Inclination: 097.9676 deg
RA of node: 129.2329 deg
Eccentricity: 0.0009163
Arg of perigee: 005.9880 deg
Mean anomaly: 354.1438 deg
Mean motion: 14.80335040 rev/day
Decay rate: 8.70e-06 rev/day^2
Epoch rev: 50509
Checksum: 316
Satellite: AO-16
Catalog number: 20439
Epoch time: 12067.84510566
Element set: 0419
Inclination: 098.4194 deg
RA of node: 014.1118 deg
Eccentricity: 0.0011769
Arg of perigee: 098.0639 deg
Mean anomaly: 262.1879 deg
Mean motion: 14.32023328 rev/day
Decay rate: 1.27e-06 rev/day^2
Epoch rev: 15549
Checksum: 307
Satellite: LO-19
Catalog number: 20442
Epoch time: 12067.95341623
Element set: 0346
Inclination: 098.3850 deg
RA of node: 017.5809 deg
Eccentricity: 0.0012842
Arg of perigee: 091.6664 deg
Mean anomaly: 268.5986 deg
Mean motion: 14.32243432 rev/day
Decay rate: 9.1e-07 rev/day^2
Epoch rev: 15569
Checksum: 315
Satellite: AO-27
Catalog number: 22825
Epoch time: 12067.89040198
Element set: 0059
Inclination: 098.5638 deg
RA of node: 012.3335 deg
Eccentricity: 0.0007881
Arg of perigee: 212.5448 deg
Mean anomaly: 147.5248 deg
Mean motion: 14.29434569 rev/day
Decay rate: 3.7e-07 rev/day^2
Epoch rev: 96200
Checksum: 319
Satellite: IO-26
Catalog number: 22826
Epoch time: 12067.98057547
Element set: 0799
Inclination: 098.5588 deg
RA of node: 012.8195 deg
Eccentricity: 0.0008306
Arg of perigee: 207.3780 deg
Mean anomaly: 152.6965 deg
Mean motion: 14.29706149 rev/day
Decay rate: 1.14e-06 rev/day^2
Epoch rev: 96214
Checksum: 342
Satellite: GO-32
Catalog number: 25397
Epoch time: 12067.88315687
Element set: 720
Inclination: 098.3539 deg
RA of node: 051.6296 deg
Eccentricity: 0.0001068
Arg of perigee: 173.7130 deg
Mean anomaly: 186.4061 deg
Mean motion: 14.23260614 rev/day
Decay rate: 1.8e-07 rev/day^2
Epoch rev: 70961
Checksum: 303
Satellite: NO-44
Catalog number: 26931
Epoch time: 12067.82144679
Element set: 0988
Inclination: 067.0522 deg
RA of node: 021.5846 deg
Eccentricity: 0.0006668
Arg of perigee: 278.0861 deg
Mean anomaly: 081.9496 deg
Mean motion: 14.29766501 rev/day
Decay rate: 4.7e-07 rev/day^2
Epoch rev: 54475
Checksum: 342
Satellite: SO-50
Catalog number: 27607
Epoch time: 12068.57547874
Element set: 707
Inclination: 064.5570 deg
RA of node: 240.9296 deg
Eccentricity: 0.0085130
Arg of perigee: 268.2976 deg
Mean anomaly: 090.8348 deg
Mean motion: 14.72241208 rev/day
Decay rate: 6.44e-06 rev/day^2
Epoch rev: 49515
Checksum: 332
Satellite: CO-55
Catalog number: 27844
Epoch time: 12068.58376257
Element set: 326
Inclination: 098.7039 deg
RA of node: 078.4222 deg
Eccentricity: 0.0010409
Arg of perigee: 149.4477 deg
Mean anomaly: 210.7328 deg
Mean motion: 14.20971228 rev/day
Decay rate: 8.7e-07 rev/day^2
Epoch rev: 45060
Checksum: 317
Satellite: CO-57
Catalog number: 27848
Epoch time: 12067.51364720
Element set: 0275
Inclination: 098.7128 deg
RA of node: 076.6554 deg
Eccentricity: 0.0009795
Arg of perigee: 155.7109 deg
Mean anomaly: 204.4520 deg
Mean motion: 14.20729611 rev/day
Decay rate: 1.66e-06 rev/day^2
Epoch rev: 45039
Checksum: 319
Satellite: AO-51
Catalog number: 28375
Epoch time: 12067.55864821
Element set: 211
Inclination: 098.1340 deg
RA of node: 037.6305 deg
Eccentricity: 0.0084265
Arg of perigee: 349.4979 deg
Mean anomaly: 010.4458 deg
Mean motion: 14.40904934 rev/day
Decay rate: 1.96e-06 rev/day^2
Epoch rev: 40413
Checksum: 307
Satellite: CP3
Catalog number: 31129
Epoch time: 12066.95774588
Element set: 0111
Inclination: 097.8865 deg
RA of node: 080.7489 deg
Eccentricity: 0.0102500
Arg of perigee: 081.3100 deg
Mean anomaly: 279.9704 deg
Mean motion: 14.52914447 rev/day
Decay rate: 8.78e-06 rev/day^2
Epoch rev: 25913
Checksum: 321
Satellite: CO-65
Catalog number: 32785
Epoch time: 12067.82453336
Element set: 247
Inclination: 097.8126 deg
RA of node: 131.2354 deg
Eccentricity: 0.0015373
Arg of perigee: 037.3346 deg
Mean anomaly: 322.8927 deg
Mean motion: 14.82729580 rev/day
Decay rate: 1.392e-05 rev/day^2
Epoch rev: 20874
Checksum: 320
Satellite: PRISM
Catalog number: 33493
Epoch time: 12068.70226033
Element set: 494
Inclination: 098.1546 deg
RA of node: 207.0040 deg
Eccentricity: 0.0018074
Arg of perigee: 261.6424 deg
Mean anomaly: 098.2745 deg
Mean motion: 14.83307542 rev/day
Decay rate: 3.407e-05 rev/day^2
Epoch rev: 16885
Checksum: 292
Satellite: SOHLA-1
Catalog number: 33496
Epoch time: 12068.83571717
Element set: 669
Inclination: 098.0932 deg
RA of node: 181.3027 deg
Eccentricity: 0.0006740
Arg of perigee: 009.5462 deg
Mean anomaly: 350.5865 deg
Mean motion: 14.69884425 rev/day
Decay rate: 4.95e-06 rev/day^2
Epoch rev: 16750
Checksum: 329
Satellite: SO-67
Catalog number: 35870
Epoch time: 12068.75638398
Element set: 751
Inclination: 097.2445 deg
RA of node: 108.0326 deg
Eccentricity: 0.0003116
Arg of perigee: 133.7856 deg
Mean anomaly: 002.8205 deg
Mean motion: 15.22944530 rev/day
Decay rate: 4.980e-05 rev/day^2
Epoch rev: 13732
Checksum: 308
Satellite: TISAT-1
Catalog number: 36799
Epoch time: 12068.79253858
Element set: 768
Inclination: 098.0699 deg
RA of node: 144.3934 deg
Eccentricity: 0.0016208
Arg of perigee: 135.9320 deg
Mean anomaly: 224.3159 deg
Mean motion: 14.81587328 rev/day
Decay rate: 2.080e-05 rev/day^2
Epoch rev: 8962
Checksum: 346
Satellite: STUDSAT
Catalog number: 36801
Epoch time: 12068.86398432
Element set: 351
Inclination: 098.0768 deg
RA of node: 144.7872 deg
Eccentricity: 0.0014165
Arg of perigee: 123.1393 deg
Mean anomaly: 237.1189 deg
Mean motion: 14.83289889 rev/day
Decay rate: 5.107e-05 rev/day^2
Epoch rev: 8964
Checksum: 336
Satellite: FO-69
Catalog number: 37227
Epoch time: 12046.04422040
Element set: 0103
Inclination: 071.9672 deg
RA of node: 223.6606 deg
Eccentricity: 0.0017759
Arg of perigee: 195.0744 deg
Mean anomaly: 164.9889 deg
Mean motion: 14.76923927 rev/day
Decay rate: 3.30e-06 rev/day^2
Epoch rev: 01791
Checksum: 314
Satellite: FO-70
Catalog number: 37380
Epoch time: 12046.50349291
Element set: 0106
Inclination: 071.9705 deg
RA of node: 223.0530 deg
Eccentricity: 0.0018152
Arg of perigee: 191.1227 deg
Mean anomaly: 168.9536 deg
Mean motion: 14.76682035 rev/day
Decay rate: 3.31e-06 rev/day^2
Epoch rev: 01787
Checksum: 285
/EX
SB KEPS @ AMSAT $ORB12068.W
Orbital Elements 12068.WEATHER
HR AMSAT ORBITAL ELEMENTS FOR WEATHER SATELLITES
FROM WA5QGD FORT WORTH,TX March 8, 2012
Send SUBSCRIBE KEPS/UNSUBSCRIBE KEPS to majordomo at amsat.org only
BID: ORB12068.W
TO ALL RADIO AMATEURS BT
Satellite: NOAA-10
Catalog number: 16969
Epoch time: 12067.94995305
Element set: 0848
Inclination: 098.5938 deg
RA of node: 098.7555 deg
Eccentricity: 0.0012559
Arg of perigee: 167.0817 deg
Mean anomaly: 193.0686 deg
Mean motion: 14.27531687 rev/day
Decay rate: 9.7e-07 rev/day^2
Epoch rev: 32542
Checksum: 365
Satellite: NOAA-11
Catalog number: 19531
Epoch time: 12067.81329213
Element set: 0844
Inclination: 098.7345 deg
RA of node: 155.0953 deg
Eccentricity: 0.0011393
Arg of perigee: 149.5385 deg
Mean anomaly: 210.6464 deg
Mean motion: 14.14954140 rev/day
Decay rate: -1.87e-06 rev/day^2
Epoch rev: 21017
Checksum: 292
Satellite: NOAA-12
Catalog number: 21263
Epoch time: 12067.97237122
Element set: 0343
Inclination: 098.7369 deg
RA of node: 090.0773 deg
Eccentricity: 0.0014448
Arg of perigee: 132.8509 deg
Mean anomaly: 227.3889 deg
Mean motion: 14.25480865 rev/day
Decay rate: 1.5e-07 rev/day^2
Epoch rev: 08213
Checksum: 306
